Location: Petrozavodsk
(61.7955°N, 34.3748°E)
Time: 03:10:36
(UTC+03:00)

Envisat - Pass Details

Date: 04 April 2023
Orbit: 763 x 765 km, 98.2° (Epoch: 28 May)

Event Time Altitude Azimuth Distance (km) Brightness Sun altitude
Rises 04:32:13 0° 18° (NNE) 3,249 7.1 -10.0°
Reaches altitude 10° 04:34:37 10° 24° (NNE) 2,319 6.4 -9.8°
Maximum altitude 04:39:35 49° 99° (E) 990 4.0 -9.3°
Drops below altitude 10° 04:44:30 10° 175° (S) 2,303 5.2 -8.8°
Sets 04:46:52 0° 181° (S) 3,225 5.9 -8.5°
